THY9KT LTFM-LTCG

Flight info

Callsign THY9KT
Flight time N/A
Altitude 37000
Route EKAWE UT641 ABSAX UN743 GAKSU UT310 SIN UN644 KARDE UL851 TOLUN
Aircraft A320/M-SDE3FGHIRWY/LB1

Departure

Time 2026-05-07 03:08
Airport İstanbul Airport (LTFM)

Arrival

Time N/A
Airport Trabzon International Airport (LTCG)
Time Latitude Longitude Altitude Speed Heading
2026-05-07 02:52 41.26163 28.73616 331 ft 0 kts 107°
2026-05-07 03:00 41.26164 28.73613 334 ft 2 kts 107°
2026-05-07 03:01 41.26169 28.73590 330 ft 3 kts 107°
2026-05-07 03:01 41.26174 28.73568 331 ft 3 kts 107°
2026-05-07 03:01 41.26180 28.73546 333 ft 2 kts 96°
2026-05-07 03:01 41.26176 28.73525 331 ft 2 kts 25°
2026-05-07 03:02 41.26173 28.73523 331 ft 0 kts 15°
2026-05-07 03:03 41.26174 28.73524 331 ft 1 kts 15°
2026-05-07 03:03 41.26182 28.73520 329 ft 2 kts 346°
2026-05-07 03:04 41.26199 28.73506 332 ft 4 kts 321°
2026-05-07 03:04 41.26217 28.73469 331 ft 6 kts 291°
2026-05-07 03:04 41.26220 28.73408 332 ft 8 kts 272°
2026-05-07 03:04 41.26219 28.73328 334 ft 9 kts 268°
2026-05-07 03:05 41.26217 28.73231 334 ft 11 kts 268°
2026-05-07 03:05 41.26214 28.73114 334 ft 14 kts 270°
2026-05-07 03:05 41.26215 28.72976 334 ft 16 kts 272°
2026-05-07 03:05 41.26214 28.72820 334 ft 18 kts 270°
2026-05-07 03:06 41.26210 28.72644 329 ft 20 kts 269°
2026-05-07 03:06 41.26232 28.72530 331 ft 5 kts 326°
2026-05-07 03:06 41.26267 28.72522 333 ft 0 kts 358°
2026-05-07 03:06 41.26274 28.72522 329 ft 2 kts 358°
2026-05-07 03:07 41.26302 28.72521 331 ft 14 kts 358°
2026-05-07 03:07 41.26712 28.72509 333 ft 102 kts 359°
2026-05-07 03:07 41.27662 28.72486 334 ft 167 kts 359°
2026-05-07 03:07 41.28998 28.72434 575 ft 202 kts 359°
2026-05-07 03:08 41.30421 28.72452 1547 ft 201 kts
2026-05-07 03:08 41.31868 28.72529 2397 ft 218 kts 360°
2026-05-07 03:08 41.33470 28.72561 3009 ft 242 kts 358°
2026-05-07 03:08 41.35223 28.72562 3555 ft 259 kts 358°
2026-05-07 03:09 41.37039 28.72559 4437 ft 261 kts 357°
2026-05-07 03:09 41.38814 28.72173 5358 ft 259 kts 336°
2026-05-07 03:09 41.40447 28.71157 6295 ft 259 kts 333°
2026-05-07 03:09 41.42074 28.70112 7163 ft 261 kts 333°
2026-05-07 03:10 41.43160 28.69416 7706 ft 263 kts 333°
2026-05-07 03:10 41.45385 28.67988 8797 ft 268 kts 334°
2026-05-07 03:10 41.46502 28.67272 9325 ft 270 kts 334°
2026-05-07 03:10 41.48208 28.66178 10102 ft 274 kts 334°
2026-05-07 03:11 41.49980 28.65041 10473 ft 294 kts 334°
2026-05-07 03:11 41.51894 28.63813 10649 ft 316 kts 335°
2026-05-07 03:11 41.54048 28.62887 10850 ft 335 kts 352°
2026-05-07 03:11 41.56401 28.62981 11361 ft 344 kts 11°
2026-05-07 03:12 41.58640 28.64151 11976 ft 351 kts 30°
2026-05-07 03:12 41.60467 28.66338 12619 ft 359 kts 50°
2026-05-07 03:12 41.61866 28.69132 13285 ft 363 kts 54°
2026-05-07 03:12 41.63237 28.71984 13887 ft 366 kts 54°
2026-05-07 03:13 41.64610 28.74851 14075 ft 366 kts 54°
2026-05-07 03:13 41.65982 28.77724 14113 ft 366 kts 55°
2026-05-07 03:13 41.67352 28.80594 14117 ft 366 kts 54°
2026-05-07 03:13 41.68742 28.83498 14117 ft 366 kts 54°
2026-05-07 03:14 41.70115 28.86367 14120 ft 366 kts 54°
2026-05-07 03:14 41.71487 28.89238 14120 ft 366 kts 54°
2026-05-07 03:14 41.74046 28.95134 14216 ft 372 kts 63°
2026-05-07 03:15 41.75130 28.98281 14820 ft 373 kts 62°
2026-05-07 03:15 41.76225 29.01441 15398 ft 376 kts 63°
2026-05-07 03:15 41.77332 29.04630 15922 ft 379 kts 63°
2026-05-07 03:15 41.78445 29.07842 16450 ft 382 kts 63°
2026-05-07 03:16 41.79568 29.11078 16979 ft 385 kts 63°
2026-05-07 03:16 41.80700 29.14352 17516 ft 388 kts 63°
2026-05-07 03:16 41.81837 29.17650 18046 ft 391 kts 63°
2026-05-07 03:16 41.82966 29.20931 18542 ft 395 kts 63°
2026-05-07 03:17 41.84118 29.24288 19009 ft 398 kts 62°
2026-05-07 03:17 41.85276 29.27670 19488 ft 401 kts 62°
2026-05-07 03:17 41.86441 29.31083 19985 ft 404 kts 62°
2026-05-07 03:17 41.87612 29.34519 20472 ft 406 kts 62°
2026-05-07 03:18 41.88791 29.37982 20922 ft 410 kts 62°
2026-05-07 03:18 41.89999 29.41450 21337 ft 412 kts 59°
2026-05-07 03:18 41.91524 29.44702 21748 ft 411 kts 49°
2026-05-07 03:18 41.93375 29.47620 22159 ft 412 kts 45°
2026-05-07 03:19 41.95276 29.50510 22577 ft 414 kts 45°
2026-05-07 03:19 41.97184 29.53431 22997 ft 417 kts 45°
2026-05-07 03:19 41.99101 29.56381 23409 ft 420 kts 45°
2026-05-07 03:19 42.01027 29.59349 23776 ft 423 kts 45°
2026-05-07 03:20 42.02880 29.62449 24105 ft 428 kts 53°
2026-05-07 03:20 42.04324 29.65981 24440 ft 435 kts 63°
2026-05-07 03:20 42.05274 29.69876 24790 ft 442 kts 74°
2026-05-07 03:20 42.05672 29.73997 25126 ft 448 kts 85°
2026-05-07 03:21 42.05514 29.78213 25450 ft 454 kts 92°
2026-05-07 03:21 42.05217 29.82448 25781 ft 456 kts 92°
2026-05-07 03:21 42.04920 29.86710 26109 ft 458 kts 92°
2026-05-07 03:21 42.04624 29.90981 26448 ft 460 kts 91°
2026-05-07 03:22 42.04325 29.95286 26794 ft 462 kts 92°
2026-05-07 03:22 42.04022 29.99602 27125 ft 464 kts 92°
2026-05-07 03:22 42.03713 30.03937 27449 ft 467 kts 92°
2026-05-07 03:22 42.03398 30.08281 27879 ft 466 kts 92°
2026-05-07 03:23 42.03083 30.12612 28352 ft 465 kts 92°
2026-05-07 03:23 42.02769 30.16937 28820 ft 464 kts 91°
2026-05-07 03:23 42.02458 30.21241 29279 ft 463 kts 91°
2026-05-07 03:23 42.02144 30.25544 29741 ft 462 kts 91°
2026-05-07 03:24 42.01827 30.29837 30202 ft 461 kts 91°
2026-05-07 03:24 42.01506 30.34126 30635 ft 460 kts 92°
2026-05-07 03:24 42.01189 30.38339 31048 ft 458 kts 92°
2026-05-07 03:24 42.00864 30.42651 31462 ft 457 kts 91°
2026-05-07 03:25 42.00544 30.46897 31864 ft 456 kts 91°
2026-05-07 03:25 42.00229 30.51078 32260 ft 455 kts 91°
2026-05-07 03:25 41.99907 30.55311 32668 ft 454 kts 91°
2026-05-07 03:25 41.99781 30.59580 33069 ft 449 kts 84°
2026-05-07 03:26 41.99822 30.63721 33464 ft 448 kts 84°
2026-05-07 03:26 41.99861 30.67902 33898 ft 448 kts 84°
2026-05-07 03:26 41.99893 30.72087 34283 ft 446 kts 84°
2026-05-07 03:26 41.99919 30.76250 34601 ft 446 kts 84°
2026-05-07 03:27 41.99944 30.80419 34902 ft 446 kts 84°
2026-05-07 03:27 41.99967 30.84585 35189 ft 446 kts 84°
2026-05-07 03:27 41.99991 30.88752 35483 ft 445 kts 85°
2026-05-07 03:27 42.00013 30.92917 35767 ft 445 kts 85°
2026-05-07 03:28 42.00032 30.97079 36039 ft 445 kts 85°
2026-05-07 03:28 42.00148 31.01225 36300 ft 442 kts 79°
2026-05-07 03:28 42.00686 31.05260 36550 ft 437 kts 70°
2026-05-07 03:28 42.01523 31.09186 36786 ft 436 kts 69°
2026-05-07 03:29 42.02365 31.13094 37027 ft 436 kts 70°
2026-05-07 03:29 42.04048 31.20951 37131 ft 437 kts 70°
2026-05-07 03:30 42.05713 31.28814 37133 ft 437 kts 70°
2026-05-07 03:30 42.07362 31.36632 37130 ft 436 kts 70°
2026-05-07 03:31 42.09012 31.44482 37130 ft 436 kts 70°
2026-05-07 03:31 42.10662 31.52337 37129 ft 436 kts 70°
2026-05-07 03:32 42.12316 31.60244 37130 ft 436 kts 70°
2026-05-07 03:32 42.13951 31.68117 37132 ft 435 kts 70°
2026-05-07 03:33 42.15561 31.75917 37134 ft 435 kts 70°
2026-05-07 03:33 42.17199 31.83826 37136 ft 435 kts 70°
2026-05-07 03:34 42.18811 31.91629 37135 ft 435 kts 70°
2026-05-07 03:34 42.20437 31.99545 37133 ft 435 kts 71°
2026-05-07 03:35 42.22040 32.07362 37131 ft 435 kts 71°
2026-05-07 03:35 42.23639 32.15238 37133 ft 434 kts 71°
2026-05-07 03:36 42.25237 32.23089 37135 ft 433 kts 70°
2026-05-07 03:36 42.27008 32.30843 37137 ft 432 kts 68°
2026-05-07 03:37 42.28844 32.38566 37136 ft 432 kts 68°
2026-05-07 03:37 42.30644 32.46321 37136 ft 433 kts 69°
2026-05-07 03:38 42.32382 32.54083 37132 ft 432 kts 72°
2026-05-07 03:38 42.32888 32.62222 37137 ft 441 kts 92°
2026-05-07 03:39 42.31991 32.70452 37140 ft 443 kts 95°
2026-05-07 03:39 42.31062 32.78683 37135 ft 443 kts 95°
2026-05-07 03:40 42.30133 32.86917 37139 ft 443 kts 95°
2026-05-07 03:40 42.29186 32.95146 37143 ft 443 kts 95°
2026-05-07 03:41 42.28230 33.03380 37132 ft 443 kts 95°
2026-05-07 03:41 42.27277 33.11608 37135 ft 443 kts 95°
2026-05-07 03:42 42.26322 33.19818 37143 ft 443 kts 95°
2026-05-07 03:42 42.25356 33.28029 37142 ft 443 kts 95°
2026-05-07 03:43 42.24380 33.36243 37142 ft 442 kts 95°
2026-05-07 03:43 42.23407 33.44428 37148 ft 441 kts 95°
2026-05-07 03:44 42.22426 33.52594 37140 ft 441 kts 95°
2026-05-07 03:44 42.21441 33.60756 37141 ft 441 kts 95°
2026-05-07 03:45 42.20446 33.68914 37142 ft 441 kts 95°
2026-05-07 03:45 42.19448 33.77073 37142 ft 441 kts 95°
2026-05-07 03:46 42.18454 33.85179 37141 ft 442 kts 96°
2026-05-07 03:46 42.17444 33.93356 37142 ft 442 kts 96°
2026-05-07 03:47 42.16425 34.01527 37142 ft 442 kts 96°
2026-05-07 03:47 42.15404 34.09690 37141 ft 442 kts 96°
2026-05-07 03:48 42.14374 34.17870 37135 ft 443 kts 96°
2026-05-07 03:48 42.13338 34.26060 37144 ft 443 kts 96°
2026-05-07 03:49 42.12300 34.34248 37143 ft 443 kts 97°
2026-05-07 03:49 42.11248 34.42419 37144 ft 443 kts 97°
2026-05-07 03:50 42.10167 34.50574 37156 ft 443 kts 98°
2026-05-07 03:50 42.09024 34.58748 37144 ft 444 kts 98°
2026-05-07 03:51 42.07875 34.66912 37150 ft 444 kts 98°
2026-05-07 03:51 42.06731 34.75084 37149 ft 444 kts 98°
2026-05-07 03:52 42.05582 34.83247 37149 ft 444 kts 98°
2026-05-07 03:52 42.04449 34.91417 37149 ft 444 kts 97°
2026-05-07 03:53 42.03356 34.99601 37155 ft 444 kts 97°
2026-05-07 03:53 42.02454 35.06401 37157 ft 444 kts 96°
2026-05-07 03:54 42.01943 35.14636 37156 ft 442 kts 91°
2026-05-07 03:54 42.01514 35.22879 37163 ft 442 kts 91°
2026-05-07 03:55 42.01063 35.31134 37156 ft 442 kts 92°
2026-05-07 03:55 42.00608 35.39384 37157 ft 442 kts 92°
2026-05-07 03:56 42.00153 35.47628 37158 ft 442 kts 92°
2026-05-07 03:56 41.99694 35.55879 37163 ft 442 kts 92°
2026-05-07 03:57 41.99230 35.64122 37162 ft 443 kts 92°
2026-05-07 03:57 41.98758 35.72372 37160 ft 443 kts 92°
2026-05-07 03:58 41.98280 35.80624 37169 ft 443 kts 92°
2026-05-07 03:58 41.97801 35.88881 37168 ft 443 kts 92°
2026-05-07 03:59 41.97313 35.97136 37169 ft 443 kts 92°
2026-05-07 03:59 41.96814 36.05380 37169 ft 443 kts 93°
2026-05-07 04:00 41.96311 36.13632 37171 ft 443 kts 93°
2026-05-07 04:00 41.95798 36.21881 37174 ft 443 kts 93°
2026-05-07 04:01 41.95287 36.30138 37180 ft 443 kts 93°
2026-05-07 04:01 41.94772 36.38390 37177 ft 443 kts 93°
2026-05-07 04:02 41.94243 36.46640 37176 ft 443 kts 93°
2026-05-07 04:02 41.93710 36.54891 37174 ft 443 kts 93°
2026-05-07 04:03 41.93177 36.63138 37177 ft 444 kts 93°
2026-05-07 04:03 41.92631 36.71392 37185 ft 443 kts 93°
2026-05-07 04:04 41.92085 36.79621 37181 ft 443 kts 94°
2026-05-07 04:04 41.91533 36.87874 37182 ft 444 kts 94°
2026-05-07 04:05 41.90969 36.96124 37189 ft 444 kts 94°
2026-05-07 04:05 41.90187 37.04337 37187 ft 445 kts 103°
2026-05-07 04:06 41.88014 37.12068 37189 ft 447 kts 111°
2026-05-07 04:06 41.85577 37.19806 37183 ft 448 kts 112°
2026-05-07 04:07 41.83171 37.27453 37199 ft 448 kts 112°
2026-05-07 04:07 41.80748 37.35152 37194 ft 448 kts 112°
2026-05-07 04:08 41.78311 37.42848 37185 ft 448 kts 112°
2026-05-07 04:08 41.75857 37.50545 37199 ft 450 kts 112°
2026-05-07 04:09 41.73402 37.58241 37187 ft 446 kts 112°
2026-05-07 04:09 41.72195 37.62009 37185 ft 434 kts 112°
2026-05-07 04:09 41.71011 37.65702 37186 ft 433 kts 112°
2026-05-07 04:09 41.69813 37.69441 36909 ft 441 kts 112°
2026-05-07 04:10 41.68585 37.73278 35616 ft 459 kts 112°
2026-05-07 04:10 41.67311 37.77259 34467 ft 473 kts 112°
2026-05-07 04:10 41.65999 37.81351 33356 ft 481 kts 112°
2026-05-07 04:10 41.64686 37.85421 33005 ft 471 kts 112°
2026-05-07 04:11 41.63394 37.89411 32299 ft 468 kts 111°
2026-05-07 04:11 41.62087 37.93453 31160 ft 477 kts 111°
2026-05-07 04:11 41.60783 37.97486 30750 ft 467 kts 111°
2026-05-07 04:11 41.59497 38.01452 29919 ft 465 kts 110°
2026-05-07 04:12 41.58207 38.05420 29249 ft 461 kts 111°
2026-05-07 04:12 41.56949 38.09281 29078 ft 446 kts 110°
2026-05-07 04:12 41.55735 38.13011 28894 ft 432 kts 110°
2026-05-07 04:12 41.54553 38.16642 28608 ft 421 kts 110°
2026-05-07 04:13 41.53402 38.20176 28325 ft 410 kts 110°
2026-05-07 04:13 41.52275 38.23627 28059 ft 401 kts 110°
2026-05-07 04:13 41.51167 38.27012 27697 ft 395 kts 110°
2026-05-07 04:13 41.50073 38.30346 27307 ft 390 kts 110°
2026-05-07 04:14 41.48992 38.33649 26911 ft 386 kts 110°
2026-05-07 04:14 41.47922 38.36922 26522 ft 383 kts 110°
2026-05-07 04:14 41.46861 38.40158 26123 ft 379 kts 111°
2026-05-07 04:14 41.45792 38.43415 25218 ft 390 kts 111°
2026-05-07 04:15 41.44685 38.46789 24206 ft 403 kts 111°
2026-05-07 04:15 41.43546 38.50251 23460 ft 407 kts 111°
2026-05-07 04:15 41.42430 38.53612 22952 ft 401 kts 111°
2026-05-07 04:15 41.41290 38.57040 22217 ft 403 kts 111°
2026-05-07 04:16 41.40175 38.60395 22078 ft 389 kts 111°
2026-05-07 04:16 41.39099 38.63639 21943 ft 376 kts 111°
2026-05-07 04:16 41.38061 38.66772 21805 ft 364 kts 111°
2026-05-07 04:16 41.37055 38.69805 21673 ft 352 kts 111°
2026-05-07 04:17 41.36080 38.72734 21538 ft 341 kts 111°
2026-05-07 04:17 41.35131 38.75576 21399 ft 330 kts 111°
2026-05-07 04:17 41.34210 38.78329 21279 ft 321 kts 111°
2026-05-07 04:17 41.33113 38.80869 21132 ft 316 kts 128°
2026-05-07 04:18 41.31466 38.82750 21017 ft 312 kts 149°
2026-05-07 04:18 41.29452 38.83708 20896 ft 306 kts 171°
2026-05-07 04:18 41.27344 38.83660 20557 ft 307 kts 191°
2026-05-07 04:18 41.25331 38.82556 19893 ft 318 kts 217°
2026-05-07 04:19 41.23776 38.80525 19674 ft 312 kts 237°
2026-05-07 04:19 41.22862 38.77971 19456 ft 304 kts 258°
2026-05-07 04:19 41.22678 38.75221 19233 ft 296 kts 279°
2026-05-07 04:19 41.23159 38.72611 19015 ft 289 kts 292°
2026-05-07 04:20 41.23870 38.70137 18797 ft 284 kts 295°
2026-05-07 04:20 41.24641 38.67734 18582 ft 281 kts 296°
2026-05-07 04:20 41.25423 38.65376 18348 ft 277 kts 296°
2026-05-07 04:21 41.27024 38.60767 17658 ft 276 kts 306°
2026-05-07 04:21 41.28332 38.58830 16853 ft 289 kts 324°
2026-05-07 04:21 41.30127 38.57525 16053 ft 302 kts 343°
2026-05-07 04:21 41.32217 38.57127 15532 ft 304 kts
2026-05-07 04:22 41.34229 38.57709 15500 ft 290 kts 23°
2026-05-07 04:22 41.35908 38.59050 15513 ft 276 kts 41°
2026-05-07 04:22 41.37116 38.60953 15515 ft 264 kts 59°
2026-05-07 04:22 41.37788 38.63159 15516 ft 252 kts 76°
2026-05-07 04:23 41.37934 38.65432 15516 ft 242 kts 93°
2026-05-07 04:23 41.37615 38.67602 15526 ft 246 kts 106°
2026-05-07 04:23 41.37020 38.69800 15529 ft 264 kts 110°
2026-05-07 04:23 41.36269 38.72196 15520 ft 289 kts 111°
2026-05-07 04:24 41.35478 38.74600 15510 ft 277 kts 112°
2026-05-07 04:24 41.34718 38.76886 15511 ft 264 kts 112°
2026-05-07 04:24 41.33994 38.79086 15521 ft 264 kts 111°
2026-05-07 04:24 41.33207 38.81500 15526 ft 300 kts 112°
2026-05-07 04:25 41.32341 38.84150 15524 ft 327 kts 112°
2026-05-07 04:25 41.31443 38.86884 15513 ft 316 kts 112°
2026-05-07 04:25 41.30566 38.89541 15520 ft 317 kts 112°
2026-05-07 04:25 41.29690 38.92198 15278 ft 314 kts 112°
2026-05-07 04:26 41.28793 38.94923 14445 ft 329 kts 112°
2026-05-07 04:26 41.27858 38.97766 13538 ft 341 kts 112°
2026-05-07 04:26 41.26892 39.00703 12570 ft 352 kts 112°
2026-05-07 04:26 41.25899 39.03723 11603 ft 361 kts 112°
2026-05-07 04:27 41.24886 39.06796 10921 ft 362 kts 112°
2026-05-07 04:27 41.23883 39.09833 10442 ft 355 kts 112°
2026-05-07 04:27 41.22900 39.12809 10068 ft 347 kts 112°
2026-05-07 04:27 41.21942 39.15705 9571 ft 342 kts 112°
2026-05-07 04:28 41.20835 39.18447 9378 ft 329 kts 121°
2026-05-07 04:28 41.19659 39.20978 9240 ft 317 kts 120°
2026-05-07 04:28 41.18509 39.23490 8375 ft 319 kts 120°
2026-05-07 04:28 41.17383 39.25970 7985 ft 303 kts 120°
2026-05-07 04:29 41.16340 39.28266 7993 ft 285 kts 120°
2026-05-07 04:29 41.15263 39.30627 7956 ft 300 kts 120°
2026-05-07 04:29 41.14167 39.33024 7246 ft 310 kts 120°
2026-05-07 04:29 41.13027 39.35515 6416 ft 322 kts 121°
2026-05-07 04:30 41.12002 39.38176 5776 ft 325 kts 113°
2026-05-07 04:30 41.11170 39.40925 5445 ft 317 kts 110°
2026-05-07 04:30 41.10386 39.43620 5127 ft 311 kts 111°
2026-05-07 04:30 41.09584 39.46253 4800 ft 305 kts 112°
2026-05-07 04:31 41.08788 39.48835 4467 ft 300 kts 112°
2026-05-07 04:31 41.08009 39.51375 4180 ft 295 kts 111°
2026-05-07 04:31 41.07246 39.53863 3992 ft 286 kts 111°
2026-05-07 04:31 41.06519 39.56231 3997 ft 270 kts 111°
2026-05-07 04:32 41.05816 39.58522 3605 ft 272 kts 112°
2026-05-07 04:32 41.05095 39.60866 3126 ft 276 kts 112°
2026-05-07 04:32 41.04368 39.63228 2698 ft 278 kts 112°
2026-05-07 04:32 41.03885 39.64797 2426 ft 278 kts 111°
2026-05-07 04:33 41.03154 39.67168 2011 ft 278 kts 112°
2026-05-07 04:33 41.02420 39.69547 1583 ft 279 kts 112°
2026-05-07 04:33 41.01676 39.71956 1153 ft 279 kts 112°
2026-05-07 04:33 41.00941 39.74333 734 ft 279 kts 112°
2026-05-07 04:34 41.00403 39.76072 421 ft 279 kts 112°